EHI
0 0 0 0 0 0 0 0 0 3 9 14 19 23 26 34 43 50 57 65 70 72 69 64 65 65 60 57 55 51 46 40 34 28 25 22 21 22 20 16 16 17 16 13
0 0 0 0 0 0 0 1 1 5 11 18 21 23 25 32 42 49 55 63 68 70 69 65 64 65 63 59 57 52 47 40 32 28 27 23 21 21 21 18 17 17 13 10
0 0 0 0 0 0 1 3 4 8 15 21 24 25 27 33 44 51 54 61 66 68 69 66 64 65 64 62 58 51 46 40 32 29 28 25 21 21 21 19 18 16 13 10
0 0 0 0 0 0 2 6 10 14 20 26 29 31 34 41 51 57 59 63 66 67 67 67 66 66 64 62 58 50 45 40 33 28 27 26 23 21 21 19 17 16 13 11
0 0 0 0 1 1 4 10 17 23 29 33 33 34 39 48 56 61 63 64 66 67 68 68 69 68 64 61 56 48 43 38 32 28 26 25 23 21 20 18 15 14 12 11
0 0 1 2 3 3 7 14 23 30 38 40 38 40 45 50 55 61 63 63 65 69 71 71 69 66 63 60 54 47 42 37 32 28 26 23 21 19 17 15 13 12 10 10
0 1 3 6 6 9 17 25 31 37 43 47 49 52 55 55 57 60 60 59 62 67 71 70 66 62 58 56 52 46 40 36 30 26 22 20 18 17 15 13 12 11 10 9
2 4 10 16 18 23 30 35 37 40 44 49 53 56 57 57 57 57 54 52 55 61 65 65 62 58 52 50 48 43 36 30 25 21 18 16 15 14 14 13 13 11 10 9
8 10 18 25 30 32 33 32 33 37 41 45 48 49 48 49 51 50 48 48 49 53 56 57 55 51 46 43 41 36 28 22 19 17 15 13 12 12 12 12 13 12 11 10
13 13 16 21 26 28 27 25 27 34 38 40 41 40 38 39 43 43 43 45 45 45 46 45 43 41 39 36 34 28 21 17 16 14 13 12 11 11 11 10 10 11 12 12
15 14 13 14 17 21 23 25 29 33 35 35 36 35 31 31 34 37 38 38 39 38 36 33 31 30 30 29 27 23 18 16 15 12 10 10 9 7 7 5 5 8 10 10
18 18 17 16 17 18 22 27 31 33 35 33 32 30 25 24 27 29 31 32 33 33 29 25 23 22 22 21 20 18 16 15 13 10 9 7 6 4 2 1 1 2 3 3
21 21 20 20 18 18 20 25 28 31 32 31 28 25 21 20 23 25 26 27 28 28 24 21 19 17 16 15 15 15 14 12 10 9 8 6 6 5 3 1 0 0 0 0
15 16 18 19 18 18 18 19 20 22 23 23 22 20 19 21 23 24 23 23 23 21 19 16 14 12 11 12 13 12 11 10 9 8 7 7 7 7 5 3 1 0 0 0
7 8 10 13 14 14 14 13 13 13 13 14 15 16 17 22 24 23 22 20 17 16 14 12 9 8 8 11 12 11 9 8 7 7 7 7 7 7 6 4 3 1 0 0
3 4 5 7 7 8 9 9 9 8 7 9 10 10 12 17 20 20 18 16 14 13 12 10 7 6 6 8 10 9 7 5 4 4 5 6 6 5 4 4 4 2 0 0
1 3 4 4 3 4 5 6 5 6 5 5 5 5 6 10 13 13 12 11 12 11 10 8 6 5 4 4 4 4 4 3 2 2 3 3 3 2 3 4 3 1 0 0
0 1 2 3 3 3 4 4 4 5 4 3 2 2 3 5 8 9 8 7 8 9 7 6 5 3 2 1 1 1 1 2 2 2 1 1 1 0 1 2 1 1 0 0
0 0 1 2 3 3 3 3 4 4 3 2 1 1 1 3 6 8 8 7 6 6 6 5 3 2 1 0 0 0 0 1 1 1 1 0 0 0 0 0 1 1 0 0
0 0 2 3 3 2 2 3 4 3 2 1 0 0 0 2 5 8 8 8 6 5 4 3 3 2 1 1 0 0 0 0 0 0 0 0 0 0 0 0 0 0 0 0
0 1 2 3 3 2 3 3 3 2 1 0 0 0 0 2 5 7 7 6 5 4 2 2 2 2 2 1 0 0 0 0 0 0 0 0 0 0 0 0 0 0 0 0
2 3 4 4 4 4 4 3 1 0 0 0 0 1 1 3 5 5 4 3 2 2 1 0 1 1 2 1 0 0 0 0 0 0 0 0 0 0 0 0 0 0 0 0
4 4 5 5 5 4 3 2 0 0 0 0 0 1 2 4 5 3 1 1 1 0 0 0 0 0 0 0 0 0 0 0 0 0 0 0 0 0 0 0 0 0 0 0
4 3 4 3 2 1 1 1 0 0 0 0 0 1 2 3 3 2 0 0 0 0 0 0 0 0 0 0 0 0 0 0 0 0 0 0 0 0 0 0 0 0 0 0
3 3 2 1 0 0 0 0 0 0 0 0 0 0 1 1 1 1 0 0 0 0 0 0 0 0 0 0 0 0 0 0 0 0 0 0 0 0 0 0 0 0 0 0
2 2 1 0 0 0 0 0 0 0 0 0 0 0 0 0 0 0 0 0 0 0 0 0 0 0 0 0 0 0 0 0 0 0 0 0 0 0 0 0 0 0 0 0
1 1 0 0 0 0 0 0 0 0 0 0 0 0 0 0 0 0 0 0 0 0 0 0 0 0 0 0 0 0 0 0 0 0 0 0 0 0 0 0 0 0 0 0
Wind_Speed
15 14 11 12 14 14 13 12 11 4 3 4 4 4 6 7 7 9 8 8 7 7 6 5 6 6 6 6 6 6 6 5 4 4 4 3 3 3 3 3 3 3 3 3
14 16 14 13 12 12 13 12 11 7 2 4 5 4 5 6 6 7 7 8 8 8 7 6 5 5 5 6 6 6 6 6 5 5 4 3 3 4 3 3 3 4 4 4
12 13 13 14 11 11 11 9 7 5 3 4 6 6 4 4 5 5 5 6 6 7 7 6 6 5 5 6 6 6 5 5 5 5 5 4 4 4 4 4 4 4 4 5
11 11 14 9 8 8 7 5 3 3 3 6 7 7 5 4 4 5 4 4 5 4 6 6 6 6 5 6 6 6 6 5 5 5 5 5 4 4 4 4 4 4 4 5
10 12 12 8 5 6 6 2 2 2 4 6 6 6 6 6 6 4 4 4 4 4 6 5 5 6 6 6 6 6 6 5 5 6 5 5 4 4 4 4 5 5 5 5
9 11 9 2 3 5 6 4 3 3 4 5 3 3 4 5 5 4 5 5 4 5 6 6 5 6 5 5 5 5 5 5 6 6 6 5 5 5 4 4 5 5 5 5
12 11 5 5 6 5 4 2 4 5 6 6 4 5 6 6 5 5 6 6 6 6 6 5 5 5 5 4 4 5 5 6 6 5 6 6 5 4 5 5 5 5 6 5
11 11 4 7 3 3 6 7 8 7 8 8 9 9 8 7 6 6 6 6 7 6 6 5 5 5 4 4 5 6 6 6 6 5 4 5 5 5 4 5 6 5 5 4
1 1 5 7 8 6 6 6 6 7 7 7 7 7 7 6 6 6 6 6 6 6 6 5 4 4 5 5 5 6 7 6 6 5 5 4 5 4 4 3 4 4 4 4
2 5 5 5 6 6 6 6 6 6 5 6 6 5 6 5 5 5 5 5 5 6 5 5 4 4 5 5 5 6 7 6 5 5 4 4 3 3 2 2 2 3 4 4
2 2 3 4 5 6 6 6 6 6 6 5 5 5 5 4 4 4 5 4 5 5 5 5 5 5 4 4 5 6 7 6 6 5 5 5 6 5 4 5 3 2 2 3
1 3 2 4 5 5 4 4 5 5 5 4 4 5 5 4 4 4 4 4 5 5 5 5 5 5 4 3 4 5 5 5 5 5 5 5 6 7 13 10 11 12 10 7
4 4 4 3 3 3 2 2 3 4 4 4 4 4 4 4 4 4 5 4 4 4 4 5 5 5 4 3 4 4 5 5 4 5 5 5 5 6 6 7 11 12 11 11
4 3 2 2 2 2 1 2 3 3 3 4 3 4 4 4 4 4 4 4 4 5 5 5 5 5 3 4 4 4 5 5 4 4 4 4 4 5 5 6 5 5 6 8
2 2 2 1 2 1 0 1 2 2 3 3 4 4 4 4 4 5 4 4 5 6 5 5 5 4 4 4 5 5 4 4 4 4 4 4 4 4 5 5 6 5 5 4
2 2 2 2 2 1 1 1 2 2 3 3 4 4 4 5 5 5 5 5 5 5 5 5 5 4 4 4 5 4 5 6 5 4 4 4 4 4 5 5 5 5 5 4
3 3 3 2 2 2 0 1 2 3 3 3 3 4 4 5 5 4 5 5 5 5 5 5 5 4 4 4 4 4 4 5 5 4 4 4 3 4 4 4 4 5 4 5
4 4 3 2 1 1 1 2 2 2 3 3 3 3 3 4 4 4 4 5 6 6 5 5 5 5 4 4 3 3 4 4 4 4 4 3 3 3 4 4 4 5 5 6
4 4 2 1 1 1 1 2 2 3 3 3 3 3 4 4 4 5 5 6 6 6 5 6 5 5 5 4 3 3 3 4 4 4 4 4 3 2 3 3 3 4 4 4
3 2 1 1 2 2 2 3 3 3 3 3 3 4 4 4 4 5 5 4 4 4 5 5 5 4 4 4 2 3 3 4 4 4 4 3 3 3 3 3 3 4 4 4
2 1 1 2 3 3 3 3 4 4 4 4 4 4 4 4 4 5 4 4 5 5 5 5 4 4 3 2 1 2 3 3 4 3 3 3 2 3 2 3 3 3 3 3
2 2 2 4 4 3 3 3 3 4 4 4 4 4 4 5 5 5 4 3 4 4 3 4 4 4 2 0 2 2 3 3 3 3 2 2 2 2 2 2 2 2 2 2
2 2 3 4 4 4 4 4 4 4 4 4 4 3 4 3 3 4 4 3 4 3 2 4 4 4 2 0 1 2 2 2 2 2 2 2 2 1 1 2 1 1 1 1
3 3 4 4 5 5 5 5 5 5 5 4 4 4 4 4 4 5 6 6 6 4 4 5 4 3 0 1 1 2 2 2 2 1 1 2 1 1 1 1 1 1 1 2
3 4 4 5 5 5 5 5 6 5 5 4 5 5 4 4 5 6 6 7 6 5 5 4 3 1 1 0 1 1 2 2 1 1 1 1 0 1 1 1 1 0 0 1
4 4 4 4 4 4 4 4 3 3 3 4 4 4 5 5 7 6 5 6 6 4 4 3 3 3 2 1 1 2 2 2 2 1 0 1 1 1 1 0 1 0 0 0
5 5 4 4 4 4 3 3 4 4 4 4 5 5 5 5 5 5 5 5 4 4 4 3 2 1 1 2 2 2 1 1 1 1 1 2 2 2 2 1 1 1 1 1
Wind_Direction
265 271 260 225 225 231 237 249 261 241 189 149 159 139 128 131 133 138 144 141 138 139 134 135 135 139 142 139 137 137 134 134 133 125 120 117 113 110 104 105 109 100 93 82
255 262 262 254 230 226 234 241 249 254 203 145 132 124 123 129 135 139 148 149 149 149 148 150 148 148 143 137 132 129 133 137 131 124 122 121 116 112 108 105 106 103 100 89
254 251 256 252 242 233 230 235 240 243 162 141 127 113 113 131 134 127 139 140 149 151 152 154 157 154 149 142 140 140 139 137 135 133 125 118 116 111 108 106 104 101 96 95
256 256 248 248 250 243 241 234 232 156 130 116 109 104 88 78 102 116 111 124 129 140 139 147 152 150 148 145 144 145 144 141 139 133 127 119 115 111 109 108 106 102 99 96
253 248 243 242 248 243 223 178 29 75 95 100 104 116 91 64 63 77 100 95 112 126 132 132 134 138 142 145 145 147 147 142 139 132 126 121 117 111 107 106 105 100 96 95
252 257 251 276 280 272 235 160 53 59 83 97 110 149 98 83 82 77 80 91 93 104 110 115 119 127 133 140 141 148 145 138 133 129 126 123 119 117 114 110 104 102 96 92
245 253 261 347 341 300 238 89 50 60 70 79 66 70 84 77 80 79 79 81 89 91 96 105 115 121 128 132 133 127 117 113 115 119 120 119 116 115 117 115 109 103 98 91
236 247 249 11 34 41 62 50 47 53 62 75 76 78 85 81 73 72 77 82 87 86 87 93 109 119 121 116 110 110 113 113 111 110 115 117 117 116 119 124 123 118 112 102
216 95 72 51 66 68 75 69 60 65 65 82 91 94 93 86 80 75 73 79 86 91 90 89 97 111 116 114 113 114 114 113 110 105 101 111 122 131 140 149 142 135 133 124
97 110 94 79 78 67 63 59 63 66 67 74 90 98 105 104 96 87 82 80 85 90 92 87 81 89 104 117 122 125 124 122 121 118 111 103 101 109 114 117 133 138 136 131
164 124 103 77 70 66 62 53 58 57 60 64 80 92 96 96 93 92 90 81 83 89 93 89 86 88 96 111 129 132 134 136 132 123 114 91 70 48 57 54 50 81 115 123
76 62 62 79 65 58 56 47 50 56 56 58 76 93 98 96 96 94 91 85 86 91 95 95 91 86 83 90 122 135 137 136 131 129 124 119 112 85 54 61 62 63 65 77
52 40 39 47 50 42 41 45 53 56 61 64 65 77 88 102 106 101 97 95 96 98 99 97 96 90 85 98 114 128 132 129 129 132 133 134 134 128 115 78 64 64 70 79
41 32 7 2 1 25 44 58 75 74 67 71 72 74 78 93 97 95 93 99 102 101 102 104 101 96 92 100 106 109 120 118 123 128 135 136 134 133 134 134 122 95 75 83
9 341 314 295 283 307 104 134 129 115 100 87 82 83 81 83 88 85 84 97 107 107 105 105 103 97 93 100 104 108 109 113 115 114 117 119 125 124 121 124 121 122 120 106
327 320 320 303 277 257 232 116 105 98 87 81 83 83 82 85 86 90 92 99 104 104 102 99 100 102 103 103 104 102 93 89 103 114 116 119 123 126 126 129 129 132 135 134
285 283 283 286 291 277 174 95 103 111 107 89 79 84 96 101 98 94 100 103 102 103 104 104 102 104 107 112 113 110 113 113 115 120 120 121 123 122 123 129 131 137 143 150
270 270 266 272 283 279 177 127 126 119 106 109 112 96 105 113 111 105 100 102 103 96 94 99 102 104 101 99 96 105 114 127 130 121 118 118 125 131 134 139 145 149 146 152
276 261 244 195 183 215 178 108 114 110 113 116 117 118 118 114 111 113 113 114 114 105 94 93 99 110 105 95 95 110 117 121 116 113 116 122 144 146 148 153 150 146 141 149
311 299 291 147 141 144 130 122 117 109 111 122 122 115 112 111 111 115 109 98 93 105 113 114 115 107 109 104 92 120 120 119 120 125 131 151 160 157 160 153 147 145 153 165
322 332 121 113 105 100 99 103 114 120 122 123 122 120 119 116 117 119 115 106 99 105 118 126 121 116 112 106 193 148 136 136 138 142 148 160 159 154 152 147 146 157 169 171
5 27 87 97 98 96 94 102 110 114 114 113 114 114 116 117 117 108 97 101 115 118 135 124 112 99 77 207 168 131 126 132 139 143 150 154 146 144 144 144 148 158 166 174
44 71 96 103 106 105 100 100 103 107 110 107 107 110 108 111 119 119 113 108 115 110 101 91 94 95 64 261 134 119 125 137 141 140 141 142 141 141 134 142 150 158 177 200
103 111 114 113 114 109 103 98 95 96 102 104 108 113 117 117 113 104 106 108 102 104 95 103 110 104 214 193 112 105 104 96 91 99 121 124 122 129 137 156 174 183 186 200
119 121 124 124 120 114 115 116 115 118 119 113 110 106 101 97 100 101 107 114 124 121 116 128 150 195 243 181 114 119 118 101 82 40 75 98 150 138 136 160 161 168 210 240
120 118 118 119 115 121 125 125 123 120 121 117 110 106 102 101 106 111 116 122 125 130 132 144 164 194 216 172 114 111 114 121 123 142 36 18 24 39 58 35 126 102 13 291
119 118 118 118 124 129 129 125 117 114 113 110 105 98 97 101 105 110 114 121 130 135 129 137 145 164 151 115 103 99 99 102 101 76 70 46 19 15 7 348 353 8 327 297